Location: ??????
(38.0131°N, 23.7723°E)
Time: 18:30:25
(UTC+00:00)

Okean-O - Pass Details

Date: 27 May 2022
Orbit: 638 x 640 km, 98.1° (Epoch: 27 June)

Event Time Altitude Azimuth Distance (km) Brightness Sun altitude
Rises 19:04:49 0° 204° (SSW) 2,929 5.8 -14.7°
Reaches altitude 10° 19:07:38 10° 223° (SW) 2,025 5.2 -15.1°
Maximum altitude 19:10:38 18° 266° (W) 1,570 5.2 -15.5°
Drops below altitude 10° 19:13:40 10° 310° (NW) 2,035 6.6 -15.9°
Sets 19:16:31 0° 329° (NNW) 2,949 7.6 -16.3°
